Voltar ao catálogo

DELTA 1 DEB

AtivoSSO
NORAD 13570·DEBRIS·🇺🇸 United States

Lançado Mar 5, 1978 de Vandenberg Space Force Base

Loading…

Próximas Passagens (próximas 24 horas)

TLE

AtualizadoSource: Space-Track

Época: Sep 14, 2026, 08:53 UTC

1 13570U 78026FH  26257.37060666  .00000648  00000-0  20413-3 0  9996
2 13570  98.5233 293.4995 0042301 289.8578  82.3226 14.43194913362706

Acompanhe DELTA 1 DEB em tempo real com AllMySat

Download on the App Store